contact:dominique.lefevre@mio.osupytheas.fr, maurice.libes@osupytheas.fr, didier.mallarino@osupytheas.fr
Project:EMSO http://www.emso-fr.org/EMSO-France
Depth: 2436.0 m
Title:EMSO Ligure Ouest : Data MII capteur MICROCAT
DateTime_Computer,Latitude,Longitude,Temperature,Conductivity,Pressure,DateTime_Instrument
DateTime_Computer,Latitude,Longitude,degC,S m-1,dbar,DateTime_Instrument
2022-05-17T00:02:24Z,42.805,6.029,13.3027,4.60087,2470.507,2022-5-17T02:04:05Z
2022-05-17T00:05:27Z,42.805,6.029,13.3024,4.60074,2470.497,2022-5-17T02:07:08Z
2022-05-17T00:08:30Z,42.805,6.029,13.3032,4.60081,2470.483,2022-5-17T02:10:11Z
2022-05-17T00:11:33Z,42.805,6.029,13.3019,4.60067,2470.46,2022-5-17T02:13:14Z
2022-05-17T00:14:36Z,42.805,6.029,13.3019,4.60072,2470.483,2022-5-17T02:16:17Z
2022-05-17T00:17:39Z,42.805,6.029,13.3024,4.60072,2470.483,2022-5-17T02:19:21Z
2022-05-17T00:20:43Z,42.805,6.029,13.3026,4.60064,2470.474,2022-5-17T02:22:24Z
2022-05-17T00:23:46Z,42.805,6.029,13.3020,4.60070,2470.497,2022-5-17T02:25:27Z
2022-05-17T00:26:49Z,42.805,6.029,13.3031,4.60092,2470.483,2022-5-17T02:28:30Z
2022-05-17T00:29:52Z,42.805,6.029,13.3024,4.60092,2470.483,2022-5-17T02:31:33Z
2022-05-17T00:32:55Z,42.805,6.029,13.3019,4.60082,2470.474,2022-5-17T02:34:36Z
2022-05-17T00:35:58Z,42.805,6.029,13.3023,4.60075,2470.483,2022-5-17T02:37:39Z
2022-05-17T00:39:01Z,42.805,6.029,13.3026,4.60074,2470.46,2022-5-17T02:40:42Z
2022-05-17T00:42:04Z,42.805,6.029,13.3028,4.60092,2470.46,2022-5-17T02:43:46Z
2022-05-17T00:45:08Z,42.805,6.029,13.3019,4.60087,2470.46,2022-5-17T02:46:49Z
2022-05-17T00:48:11Z,42.805,6.029,13.3024,4.60093,2470.497,2022-5-17T02:49:52Z
2022-05-17T00:51:14Z,42.805,6.029,13.3023,4.60075,2470.437,2022-5-17T02:52:55Z
2022-05-17T00:54:17Z,42.805,6.029,13.3025,4.60089,2470.46,2022-5-17T02:55:58Z
2022-05-17T00:57:20Z,42.805,6.029,13.3022,4.60084,2470.474,2022-5-17T02:59:01Z
2022-05-17T01:00:23Z,42.805,6.029,13.3018,4.60076,2470.46,2022-5-17T03:02:04Z
2022-05-17T01:03:26Z,42.805,6.029,13.3023,4.60070,2470.497,2022-5-17T03:05:07Z
2022-05-17T01:06:29Z,42.805,6.029,13.3036,4.60090,2470.45,2022-5-17T03:08:10Z
2022-05-17T01:09:33Z,42.805,6.029,13.3026,4.60098,2470.45,2022-5-17T03:11:14Z
2022-05-17T01:12:36Z,42.805,6.029,13.3029,4.60106,2470.46,2022-5-17T03:14:17Z
2022-05-17T01:15:39Z,42.805,6.029,13.3030,4.60104,2470.437,2022-5-17T03:17:20Z
2022-05-17T01:18:42Z,42.805,6.029,13.3021,4.60076,2470.46,2022-5-17T03:20:23Z
2022-05-17T01:21:45Z,42.805,6.029,13.3021,4.60091,2470.437,2022-5-17T03:23:26Z
2022-05-17T01:24:48Z,42.805,6.029,13.3026,4.60097,2470.437,2022-5-17T03:26:29Z
2022-05-17T01:27:51Z,42.805,6.029,13.3026,4.60104,2470.437,2022-5-17T03:29:32Z
2022-05-17T01:30:54Z,42.805,6.029,13.3026,4.60081,2470.46,2022-5-17T03:32:35Z
2022-05-17T01:33:58Z,42.805,6.029,13.3024,4.60086,2470.437,2022-5-17T03:35:39Z
2022-05-17T01:37:01Z,42.805,6.029,13.3036,4.60106,2470.46,2022-5-17T03:38:42Z
2022-05-17T01:40:04Z,42.805,6.029,13.3032,4.60095,2470.437,2022-5-17T03:41:45Z
2022-05-17T01:43:07Z,42.805,6.029,13.3018,4.60074,2470.413,2022-5-17T03:44:48Z
2022-05-17T01:46:10Z,42.805,6.029,13.3039,4.60081,2470.437,2022-5-17T03:47:51Z
2022-05-17T01:49:13Z,42.805,6.029,13.3020,4.60107,2470.413,2022-5-17T03:50:54Z
2022-05-17T01:52:16Z,42.805,6.029,13.3020,4.60099,2470.404,2022-5-17T03:53:57Z
2022-05-17T01:55:19Z,42.805,6.029,13.3020,4.60091,2470.46,2022-5-17T03:57:00Z
2022-05-17T01:58:22Z,42.805,6.029,13.3022,4.60093,2470.427,2022-5-17T04:00:04Z
2022-05-17T02:01:26Z,42.805,6.029,13.3032,4.60079,2470.45,2022-5-17T04:03:07Z
2022-05-17T02:04:29Z,42.805,6.029,13.3036,4.60085,2470.413,2022-5-17T04:06:10Z
2022-05-17T02:07:32Z,42.805,6.029,13.3044,4.60099,2470.427,2022-5-17T04:09:13Z
2022-05-17T02:10:35Z,42.805,6.029,13.3033,4.60110,2470.437,2022-5-17T04:12:16Z
2022-05-17T02:13:38Z,42.805,6.029,13.3029,4.60082,2470.427,2022-5-17T04:15:19Z
2022-05-17T02:16:41Z,42.805,6.029,13.3049,4.60097,2470.413,2022-5-17T04:18:22Z
2022-05-17T02:19:44Z,42.805,6.029,13.3026,4.60094,2470.45,2022-5-17T04:21:25Z
2022-05-17T02:22:47Z,42.805,6.029,13.3035,4.60100,2470.474,2022-5-17T04:24:28Z
2022-05-17T02:25:51Z,42.805,6.029,13.3037,4.60114,2470.46,2022-5-17T04:27:32Z
2022-05-17T02:28:54Z,42.805,6.029,13.3036,4.60117,2470.45,2022-5-17T04:30:35Z
2022-05-17T02:31:57Z,42.805,6.029,13.3034,4.60107,2470.427,2022-5-17T04:33:38Z
2022-05-17T02:35:00Z,42.805,6.029,13.3025,4.60099,2470.427,2022-5-17T04:36:41Z
2022-05-17T02:38:03Z,42.805,6.029,13.3036,4.60122,2470.45,2022-5-17T04:39:44Z
2022-05-17T02:41:06Z,42.805,6.029,13.3034,4.60105,2470.474,2022-5-17T04:42:47Z
2022-05-17T02:44:09Z,42.805,6.029,13.3025,4.60092,2470.45,2022-5-17T04:45:50Z
2022-05-17T02:47:12Z,42.805,6.029,13.3031,4.60087,2470.46,2022-5-17T04:48:53Z
2022-05-17T02:50:16Z,42.805,6.029,13.3021,4.60087,2470.46,2022-5-17T04:51:57Z
2022-05-17T02:53:19Z,42.805,6.029,13.3029,4.60110,2470.413,2022-5-17T04:55:00Z
2022-05-17T02:56:22Z,42.805,6.029,13.3039,4.60105,2470.427,2022-5-17T04:58:03Z
2022-05-17T02:59:25Z,42.805,6.029,13.3027,4.60103,2470.437,2022-5-17T05:01:06Z
2022-05-17T03:02:28Z,42.805,6.029,13.3032,4.60097,2470.437,2022-5-17T05:04:09Z
2022-05-17T03:05:31Z,42.805,6.029,13.3041,4.60089,2470.45,2022-5-17T05:07:12Z
2022-05-17T03:08:34Z,42.805,6.029,13.3025,4.60104,2470.46,2022-5-17T05:10:15Z
2022-05-17T03:11:37Z,42.805,6.029,13.3029,4.60103,2470.437,2022-5-17T05:13:18Z
2022-05-17T03:14:40Z,42.805,6.029,13.3022,4.60089,2470.474,2022-5-17T05:16:22Z
2022-05-17T03:17:44Z,42.805,6.029,13.3035,4.60095,2470.413,2022-5-17T05:19:25Z
2022-05-17T03:20:47Z,42.805,6.029,13.3026,4.60075,2470.437,2022-5-17T05:22:28Z
2022-05-17T03:23:50Z,42.805,6.029,13.3021,4.60071,2470.45,2022-5-17T05:25:31Z
2022-05-17T03:26:53Z,42.805,6.029,13.3032,4.60100,2470.46,2022-5-17T05:28:34Z
2022-05-17T03:29:56Z,42.805,6.029,13.3035,4.60104,2470.413,2022-5-17T05:31:37Z
2022-05-17T03:32:59Z,42.805,6.029,13.3018,4.60082,2470.474,2022-5-17T05:34:40Z
2022-05-17T03:36:02Z,42.805,6.029,13.3031,4.60087,2470.446,2022-5-17T05:37:43Z
2022-05-17T03:39:05Z,42.805,6.029,13.3029,4.60093,2470.437,2022-5-17T05:40:46Z
2022-05-17T03:42:09Z,42.805,6.029,13.3034,4.60085,2470.474,2022-5-17T05:43:50Z
2022-05-17T03:45:12Z,42.805,6.029,13.3029,4.60069,2470.46,2022-5-17T05:46:53Z
2022-05-17T03:48:15Z,42.805,6.029,13.3033,4.60075,2470.46,2022-5-17T05:49:56Z
2022-05-17T03:51:18Z,42.805,6.029,13.3027,4.60092,2470.46,2022-5-17T05:52:59Z
2022-05-17T03:54:21Z,42.805,6.029,13.3032,4.60090,2470.474,2022-5-17T05:56:02Z
2022-05-17T03:57:24Z,42.805,6.029,13.3024,4.60089,2470.46,2022-5-17T05:59:05Z
2022-05-17T04:00:27Z,42.805,6.029,13.3033,4.60079,2470.483,2022-5-17T06:02:08Z
2022-05-17T04:03:30Z,42.805,6.029,13.3029,4.60079,2470.483,2022-5-17T06:05:11Z
2022-05-17T04:06:34Z,42.805,6.029,13.3031,4.60084,2470.474,2022-5-17T06:08:15Z
2022-05-17T04:09:37Z,42.805,6.029,13.3031,4.60084,2470.507,2022-5-17T06:11:18Z
2022-05-17T04:12:40Z,42.805,6.029,13.3026,4.60090,2470.497,2022-5-17T06:14:21Z
2022-05-17T04:15:43Z,42.805,6.029,13.3021,4.60065,2470.53,2022-5-17T06:17:24Z
2022-05-17T04:18:46Z,42.805,6.029,13.3031,4.60084,2470.52,2022-5-17T06:20:27Z
2022-05-17T04:21:49Z,42.805,6.029,13.3026,4.60087,2470.507,2022-5-17T06:23:30Z
2022-05-17T04:24:52Z,42.805,6.029,13.3016,4.60077,2470.483,2022-5-17T06:26:33Z
2022-05-17T04:27:55Z,42.805,6.029,13.3021,4.60082,2470.53,2022-5-17T06:29:36Z
2022-05-17T04:30:59Z,42.805,6.029,13.3028,4.60084,2470.497,2022-5-17T06:32:40Z
2022-05-17T04:34:02Z,42.805,6.029,13.3019,4.60070,2470.507,2022-5-17T06:35:43Z
2022-05-17T04:37:05Z,42.805,6.029,13.3019,4.60078,2470.507,2022-5-17T06:38:46Z
2022-05-17T04:40:08Z,42.805,6.029,13.3024,4.60081,2470.483,2022-5-17T06:41:49Z
2022-05-17T04:43:11Z,42.805,6.029,13.3023,4.60081,2470.567,2022-5-17T06:44:52Z
2022-05-17T04:46:14Z,42.805,6.029,13.3016,4.60077,2470.544,2022-5-17T06:47:55Z
2022-05-17T04:49:17Z,42.805,6.029,13.3029,4.60082,2470.53,2022-5-17T06:50:58Z
2022-05-17T04:52:20Z,42.805,6.029,13.3024,4.60091,2470.53,2022-5-17T06:54:01Z
2022-05-17T04:55:23Z,42.805,6.029,13.3021,4.60085,2470.53,2022-5-17T06:57:05Z
2022-05-17T04:58:27Z,42.805,6.029,13.3027,4.60078,2470.53,2022-5-17T07:00:08Z
2022-05-17T05:01:30Z,42.805,6.029,13.3017,4.60074,2470.53,2022-5-17T07:03:11Z
2022-05-17T05:04:33Z,42.805,6.029,13.3016,4.60079,2470.53,2022-5-17T07:06:14Z
2022-05-17T05:07:36Z,42.805,6.029,13.3029,4.60077,2470.52,2022-5-17T07:09:17Z
2022-05-17T05:10:39Z,42.805,6.029,13.3014,4.60084,2470.567,2022-5-17T07:12:20Z
2022-05-17T05:13:42Z,42.805,6.029,13.3027,4.60081,2470.567,2022-5-17T07:15:23Z
2022-05-17T05:16:45Z,42.805,6.029,13.3018,4.60070,2470.53,2022-5-17T07:18:26Z
2022-05-17T05:19:48Z,42.805,6.029,13.3013,4.60058,2470.591,2022-5-17T07:21:29Z
2022-05-17T05:22:52Z,42.805,6.029,13.3015,4.60079,2470.553,2022-5-17T07:24:33Z
2022-05-17T05:25:55Z,42.805,6.029,13.3031,4.60077,2470.563,2022-5-17T07:27:36Z
2022-05-17T05:28:58Z,42.805,6.029,13.3022,4.60083,2470.591,2022-5-17T07:30:39Z
2022-05-17T05:32:01Z,42.805,6.029,13.3024,4.60073,2470.577,2022-5-17T07:33:42Z
2022-05-17T05:35:04Z,42.805,6.029,13.3024,4.60084,2470.577,2022-5-17T07:36:45Z
2022-05-17T05:38:07Z,42.805,6.029,13.3019,4.60082,2470.577,2022-5-17T07:39:48Z
2022-05-17T05:41:10Z,42.805,6.029,13.3029,4.60081,2470.577,2022-5-17T07:42:51Z
2022-05-17T05:44:13Z,42.805,6.029,13.3026,4.60083,2470.614,2022-5-17T07:45:54Z
2022-05-17T05:47:17Z,42.805,6.029,13.3024,4.60069,2470.577,2022-5-17T07:48:58Z
2022-05-17T05:50:20Z,42.805,6.029,13.3015,4.60067,2470.577,2022-5-17T07:52:01Z
2022-05-17T05:53:23Z,42.805,6.029,13.3015,4.60064,2470.591,2022-5-17T07:55:04Z
2022-05-17T05:56:26Z,42.805,6.029,13.3021,4.60077,2470.567,2022-5-17T07:58:07Z
2022-05-17T05:59:29Z,42.805,6.029,13.3014,4.60079,2470.567,2022-5-17T08:01:10Z
2022-05-17T06:02:32Z,42.805,6.029,13.3015,4.60068,2470.6,2022-5-17T08:04:13Z
2022-05-17T06:05:35Z,42.805,6.029,13.3019,4.60072,2470.637,2022-5-17T08:07:16Z
2022-05-17T06:08:38Z,42.805,6.029,13.3023,4.60081,2470.6,2022-5-17T08:10:19Z
2022-05-17T06:11:42Z,42.805,6.029,13.3027,4.60087,2470.577,2022-5-17T08:13:23Z
2022-05-17T06:14:45Z,42.805,6.029,13.3022,4.60084,2470.614,2022-5-17T08:16:26Z
2022-05-17T06:17:48Z,42.805,6.029,13.3026,4.60077,2470.577,2022-5-17T08:19:29Z
2022-05-17T06:20:51Z,42.805,6.029,13.3022,4.60072,2470.6,2022-5-17T08:22:32Z
2022-05-17T06:23:54Z,42.805,6.029,13.3029,4.60087,2470.624,2022-5-17T08:25:35Z
2022-05-17T06:26:57Z,42.805,6.029,13.3024,4.60074,2470.624,2022-5-17T08:28:38Z
2022-05-17T06:30:00Z,42.805,6.029,13.3021,4.60079,2470.591,2022-5-17T08:31:41Z
2022-05-17T06:33:03Z,42.805,6.029,13.3021,4.60086,2470.6,2022-5-17T08:34:44Z
2022-05-17T06:36:06Z,42.805,6.029,13.3024,4.60075,2470.637,2022-5-17T08:37:48Z
2022-05-17T06:39:10Z,42.805,6.029,13.3026,4.60089,2470.637,2022-5-17T08:40:51Z
2022-05-17T06:42:13Z,42.805,6.029,13.3027,4.60092,2470.591,2022-5-17T08:43:54Z
2022-05-17T06:45:16Z,42.805,6.029,13.3018,4.60085,2470.577,2022-5-17T08:46:57Z
2022-05-17T06:48:19Z,42.805,6.029,13.3017,4.60067,2470.624,2022-5-17T08:50:00Z
2022-05-17T06:51:22Z,42.805,6.029,13.3019,4.60081,2470.577,2022-5-17T08:53:03Z
2022-05-17T06:54:25Z,42.805,6.029,13.3016,4.60068,2470.6,2022-5-17T08:56:06Z
2022-05-17T06:57:28Z,42.805,6.029,13.3014,4.60067,2470.614,2022-5-17T08:59:09Z
2022-05-17T07:00:31Z,42.805,6.029,13.3023,4.60088,2470.624,2022-5-17T09:02:13Z
2022-05-17T07:03:35Z,42.805,6.029,13.3023,4.60085,2470.591,2022-5-17T09:05:16Z
2022-05-17T07:06:38Z,42.805,6.029,13.3021,4.60067,2470.6,2022-5-17T09:08:19Z
2022-05-17T07:09:41Z,42.805,6.029,13.3026,4.60085,2470.6,2022-5-17T09:11:22Z
2022-05-17T07:12:44Z,42.805,6.029,13.3026,4.60058,2470.6,2022-5-17T09:14:25Z
2022-05-17T07:15:47Z,42.805,6.029,13.3012,4.60074,2470.614,2022-5-17T09:17:28Z
2022-05-17T07:18:50Z,42.805,6.029,13.3021,4.60072,2470.614,2022-5-17T09:20:31Z
2022-05-17T07:21:53Z,42.805,6.029,13.3019,4.60073,2470.6,2022-5-17T09:23:34Z
2022-05-17T07:24:56Z,42.805,6.029,13.3018,4.60086,2470.6,2022-5-17T09:26:37Z
2022-05-17T07:28:00Z,42.805,6.029,13.3023,4.60084,2470.6,2022-5-17T09:29:41Z
2022-05-17T07:31:03Z,42.805,6.029,13.3016,4.60078,2470.614,2022-5-17T09:32:44Z
2022-05-17T07:34:06Z,42.805,6.029,13.3016,4.60086,2470.614,2022-5-17T09:35:47Z
2022-05-17T07:37:09Z,42.805,6.029,13.3027,4.60085,2470.591,2022-5-17T09:38:50Z
2022-05-17T07:40:12Z,42.805,6.029,13.3028,4.60087,2470.577,2022-5-17T09:41:53Z
2022-05-17T07:43:15Z,42.805,6.029,13.3011,4.60086,2470.6,2022-5-17T09:44:56Z
2022-05-17T07:46:18Z,42.805,6.029,13.3021,4.60070,2470.624,2022-5-17T09:47:59Z
2022-05-17T07:49:21Z,42.805,6.029,13.3025,4.60069,2470.614,2022-5-17T09:51:02Z
2022-05-17T07:52:25Z,42.805,6.029,13.3026,4.60094,2470.6,2022-5-17T09:54:06Z
2022-05-17T07:55:28Z,42.805,6.029,13.3031,4.60086,2470.6,2022-5-17T09:57:09Z
2022-05-17T07:58:31Z,42.805,6.029,13.3021,4.60097,2470.614,2022-5-17T10:00:12Z
2022-05-17T08:01:34Z,42.805,6.029,13.3028,4.60086,2470.614,2022-5-17T10:03:15Z
2022-05-17T08:04:37Z,42.805,6.029,13.3011,4.60060,2470.577,2022-5-17T10:06:18Z
2022-05-17T08:07:40Z,42.805,6.029,13.3030,4.60069,2470.6,2022-5-17T10:09:21Z
2022-05-17T08:10:43Z,42.805,6.029,13.3021,4.60091,2470.6,2022-5-17T10:12:24Z
2022-05-17T08:13:46Z,42.805,6.029,13.3029,4.60086,2470.577,2022-5-17T10:15:27Z
2022-05-17T08:16:49Z,42.805,6.029,13.3022,4.60072,2470.591,2022-5-17T10:18:31Z
2022-05-17T08:19:53Z,42.805,6.029,13.3021,4.60074,2470.624,2022-5-17T10:21:34Z
2022-05-17T08:22:56Z,42.805,6.029,13.3027,4.60097,2470.614,2022-5-17T10:24:37Z
2022-05-17T08:25:59Z,42.805,6.029,13.3019,4.60078,2470.6,2022-5-17T10:27:40Z
2022-05-17T08:29:02Z,42.805,6.029,13.3018,4.60079,2470.6,2022-5-17T10:30:43Z
2022-05-17T08:32:05Z,42.805,6.029,13.3020,4.60074,2470.591,2022-5-17T10:33:46Z
2022-05-17T08:35:08Z,42.805,6.029,13.3021,4.60062,2470.591,2022-5-17T10:36:49Z
2022-05-17T08:38:11Z,42.805,6.029,13.3034,4.60084,2470.577,2022-5-17T10:39:52Z
2022-05-17T08:41:15Z,42.805,6.029,13.3014,4.60074,2470.591,2022-5-17T10:42:56Z
2022-05-17T08:44:18Z,42.805,6.029,13.3018,4.60093,2470.614,2022-5-17T10:45:59Z
2022-05-17T08:47:21Z,42.805,6.029,13.3036,4.60072,2470.577,2022-5-17T10:49:02Z
2022-05-17T08:50:24Z,42.805,6.029,13.3031,4.60091,2470.577,2022-5-17T10:52:05Z
2022-05-17T08:53:27Z,42.805,6.029,13.3024,4.60080,2470.591,2022-5-17T10:55:08Z
2022-05-17T08:56:30Z,42.805,6.029,13.3017,4.60069,2470.591,2022-5-17T10:58:11Z
2022-05-17T08:59:33Z,42.805,6.029,13.3015,4.60079,2470.567,2022-5-17T11:01:14Z
2022-05-17T09:02:36Z,42.805,6.029,13.3025,4.60089,2470.591,2022-5-17T11:04:17Z
2022-05-17T09:05:39Z,42.805,6.029,13.3026,4.60081,2470.591,2022-5-17T11:07:21Z
2022-05-17T09:08:43Z,42.805,6.029,13.3031,4.60089,2470.553,2022-5-17T11:10:24Z
2022-05-17T09:11:46Z,42.805,6.029,13.3030,4.60090,2470.553,2022-5-17T11:13:27Z
2022-05-17T09:14:49Z,42.805,6.029,13.3032,4.60093,2470.6,2022-5-17T11:16:30Z
2022-05-17T09:17:52Z,42.805,6.029,13.3027,4.60089,2470.591,2022-5-17T11:19:33Z
2022-05-17T09:20:55Z,42.805,6.029,13.3017,4.60085,2470.577,2022-5-17T11:22:36Z
2022-05-17T09:23:58Z,42.805,6.029,13.3016,4.60074,2470.6,2022-5-17T11:25:39Z
2022-05-17T09:27:01Z,42.805,6.029,13.3019,4.60067,2470.553,2022-5-17T11:28:42Z
2022-05-17T09:30:05Z,42.805,6.029,13.3027,4.60085,2470.577,2022-5-17T11:31:46Z
2022-05-17T09:33:08Z,42.805,6.029,13.3019,4.60074,2470.553,2022-5-17T11:34:49Z
2022-05-17T09:36:11Z,42.805,6.029,13.3024,4.60079,2470.553,2022-5-17T11:37:52Z
2022-05-17T09:39:14Z,42.805,6.029,13.3031,4.60086,2470.553,2022-5-17T11:40:55Z
2022-05-17T09:42:17Z,42.805,6.029,13.3021,4.60086,2470.544,2022-5-17T11:43:58Z
2022-05-17T09:45:20Z,42.805,6.029,13.3019,4.60085,2470.553,2022-5-17T11:47:01Z
2022-05-17T09:48:23Z,42.805,6.029,13.3028,4.60086,2470.544,2022-5-17T11:50:04Z
2022-05-17T09:51:26Z,42.805,6.029,13.3019,4.60072,2470.553,2022-5-17T11:53:07Z
2022-05-17T09:54:30Z,42.805,6.029,13.3026,4.60086,2470.567,2022-5-17T11:56:11Z
2022-05-17T09:57:33Z,42.805,6.029,13.3015,4.60081,2470.567,2022-5-17T11:59:14Z
2022-05-17T10:00:36Z,42.805,6.029,13.3018,4.60083,2470.553,2022-5-17T12:02:17Z
2022-05-17T10:03:39Z,42.805,6.029,13.3017,4.60079,2470.53,2022-5-17T12:05:20Z
2022-05-17T10:06:42Z,42.805,6.029,13.3024,4.60069,2470.53,2022-5-17T12:08:23Z
2022-05-17T10:09:45Z,42.805,6.029,13.3026,4.60081,2470.544,2022-5-17T12:11:26Z
2022-05-17T10:12:48Z,42.805,6.029,13.3026,4.60088,2470.544,2022-5-17T12:14:29Z
2022-05-17T10:15:51Z,42.805,6.029,13.3021,4.60084,2470.544,2022-5-17T12:17:32Z
2022-05-17T10:18:55Z,42.805,6.029,13.3016,4.60077,2470.553,2022-5-17T12:20:36Z
2022-05-17T10:21:58Z,42.805,6.029,13.3014,4.60062,2470.544,2022-5-17T12:23:39Z
2022-05-17T10:25:01Z,42.805,6.029,13.3025,4.60065,2470.52,2022-5-17T12:26:42Z
2022-05-17T10:28:04Z,42.805,6.029,13.3022,4.60074,2470.53,2022-5-17T12:29:45Z
2022-05-17T10:31:07Z,42.805,6.029,13.3019,4.60072,2470.567,2022-5-17T12:32:48Z
2022-05-17T10:34:10Z,42.805,6.029,13.3011,4.60061,2470.53,2022-5-17T12:35:51Z
2022-05-17T10:37:13Z,42.805,6.029,13.3021,4.60084,2470.53,2022-5-17T12:38:54Z
2022-05-17T10:40:16Z,42.805,6.029,13.3014,4.60067,2470.53,2022-5-17T12:41:57Z
2022-05-17T10:43:20Z,42.805,6.029,13.3017,4.60073,2470.544,2022-5-17T12:45:01Z
2022-05-17T10:46:23Z,42.805,6.029,13.3024,4.60083,2470.544,2022-5-17T12:48:04Z
2022-05-17T10:49:26Z,42.805,6.029,13.3026,4.60084,2470.507,2022-5-17T12:51:07Z
2022-05-17T10:52:29Z,42.805,6.029,13.3021,4.60084,2470.52,2022-5-17T12:54:10Z
2022-05-17T10:55:32Z,42.805,6.029,13.3019,4.60077,2470.483,2022-5-17T12:57:13Z
2022-05-17T10:58:35Z,42.805,6.029,13.3021,4.60079,2470.544,2022-5-17T13:00:16Z
2022-05-17T11:01:38Z,42.805,6.029,13.3022,4.60085,2470.52,2022-5-17T13:03:19Z
2022-05-17T11:04:41Z,42.805,6.029,13.3020,4.60076,2470.507,2022-5-17T13:06:22Z
2022-05-17T11:07:45Z,42.805,6.029,13.3018,4.60079,2470.52,2022-5-17T13:09:26Z
2022-05-17T11:10:48Z,42.805,6.029,13.3021,4.60083,2470.52,2022-5-17T13:12:29Z
2022-05-17T11:13:51Z,42.805,6.029,13.3020,4.60060,2470.507,2022-5-17T13:15:32Z
2022-05-17T11:16:54Z,42.805,6.029,13.3016,4.60072,2470.507,2022-5-17T13:18:35Z
2022-05-17T11:19:57Z,42.805,6.029,13.3016,4.60079,2470.52,2022-5-17T13:21:38Z
2022-05-17T11:23:00Z,42.805,6.029,13.3024,4.60083,2470.544,2022-5-17T13:24:41Z
2022-05-17T11:26:03Z,42.805,6.029,13.3018,4.60093,2470.46,2022-5-17T13:27:44Z
2022-05-17T11:29:06Z,42.805,6.029,13.3026,4.60091,2470.483,2022-5-17T13:30:47Z
2022-05-17T11:32:10Z,42.805,6.029,13.3019,4.60086,2470.46,2022-5-17T13:33:51Z
2022-05-17T11:35:13Z,42.805,6.029,13.3015,4.60090,2470.497,2022-5-17T13:36:54Z
2022-05-17T11:38:16Z,42.805,6.029,13.3030,4.60091,2470.497,2022-5-17T13:39:57Z
2022-05-17T11:41:19Z,42.805,6.029,13.3030,4.60085,2470.46,2022-5-17T13:43:00Z
2022-05-17T11:44:22Z,42.805,6.029,13.3024,4.60087,2470.483,2022-5-17T13:46:03Z
2022-05-17T11:47:25Z,42.805,6.029,13.3033,4.60091,2470.474,2022-5-17T13:49:06Z
2022-05-17T11:50:28Z,42.805,6.029,13.3024,4.60085,2470.437,2022-5-17T13:52:09Z
2022-05-17T11:53:31Z,42.805,6.029,13.3019,4.60088,2470.474,2022-5-17T13:55:13Z
2022-05-17T11:56:35Z,42.805,6.029,13.3029,4.60092,2470.46,2022-5-17T13:58:16Z
2022-05-17T11:59:38Z,42.805,6.029,13.3024,4.60084,2470.52,2022-5-17T14:01:19Z
2022-05-17T12:02:41Z,42.805,6.029,13.3029,4.60081,2470.45,2022-5-17T14:04:22Z
2022-05-17T12:05:44Z,42.805,6.029,13.3026,4.60084,2470.46,2022-5-17T14:07:25Z
2022-05-17T12:08:47Z,42.805,6.029,13.3022,4.60092,2470.497,2022-5-17T14:10:28Z
2022-05-17T12:11:50Z,42.805,6.029,13.3021,4.60074,2470.483,2022-5-17T14:13:31Z
2022-05-17T12:14:53Z,42.805,6.029,13.3007,4.60064,2470.483,2022-5-17T14:16:34Z
2022-05-17T12:17:56Z,42.805,6.029,13.3015,4.60074,2470.46,2022-5-17T14:19:38Z
2022-05-17T12:21:00Z,42.805,6.029,13.3029,4.60077,2470.46,2022-5-17T14:22:41Z
2022-05-17T12:24:03Z,42.805,6.029,13.3014,4.60062,2470.437,2022-5-17T14:25:44Z
2022-05-17T12:27:06Z,42.805,6.029,13.3011,4.60061,2470.46,2022-5-17T14:28:47Z
2022-05-17T12:30:09Z,42.805,6.029,13.3014,4.60059,2470.46,2022-5-17T14:31:50Z
2022-05-17T12:33:12Z,42.805,6.029,13.3020,4.60075,2470.437,2022-5-17T14:34:53Z
2022-05-17T12:36:15Z,42.805,6.029,13.3021,4.60062,2470.413,2022-5-17T14:37:56Z
2022-05-17T12:39:18Z,42.805,6.029,13.3025,4.60081,2470.437,2022-5-17T14:40:59Z
2022-05-17T12:42:21Z,42.805,6.029,13.3023,4.60084,2470.483,2022-5-17T14:44:03Z
2022-05-17T12:45:25Z,42.805,6.029,13.3014,4.60080,2470.46,2022-5-17T14:47:06Z
2022-05-17T12:48:28Z,42.805,6.029,13.3014,4.60081,2470.45,2022-5-17T14:50:09Z
2022-05-17T12:51:31Z,42.805,6.029,13.3028,4.60079,2470.45,2022-5-17T14:53:12Z
2022-05-17T12:54:34Z,42.805,6.029,13.3009,4.60059,2470.437,2022-5-17T14:56:15Z
2022-05-17T12:57:37Z,42.805,6.029,13.3024,4.60066,2470.437,2022-5-17T14:59:18Z
2022-05-17T13:00:40Z,42.805,6.029,13.3015,4.60061,2470.45,2022-5-17T15:02:21Z
2022-05-17T13:03:43Z,42.805,6.029,13.3021,4.60079,2470.45,2022-5-17T15:05:24Z
2022-05-17T13:06:46Z,42.805,6.029,13.3024,4.60080,2470.437,2022-5-17T15:08:28Z
2022-05-17T13:09:50Z,42.805,6.029,13.3019,4.60079,2470.45,2022-5-17T15:11:31Z
2022-05-17T13:12:53Z,42.805,6.029,13.3015,4.60079,2470.45,2022-5-17T15:14:34Z
2022-05-17T13:15:56Z,42.805,6.029,13.3024,4.60079,2470.46,2022-5-17T15:17:37Z
2022-05-17T13:18:59Z,42.805,6.029,13.3019,4.60070,2470.427,2022-5-17T15:20:40Z
2022-05-17T13:22:02Z,42.805,6.029,13.3024,4.60073,2470.423,2022-5-17T15:23:43Z
2022-05-17T13:25:05Z,42.805,6.029,13.3024,4.60081,2470.427,2022-5-17T15:26:46Z
2022-05-17T13:28:08Z,42.805,6.029,13.3026,4.60086,2470.427,2022-5-17T15:29:49Z
2022-05-17T13:31:11Z,42.805,6.029,13.3024,4.60081,2470.427,2022-5-17T15:32:53Z
2022-05-17T13:34:15Z,42.805,6.029,13.3022,4.60076,2470.45,2022-5-17T15:35:56Z
2022-05-17T13:37:18Z,42.805,6.029,13.3020,4.60070,2470.413,2022-5-17T15:38:59Z
2022-05-17T13:40:21Z,42.805,6.029,13.3021,4.60081,2470.404,2022-5-17T15:42:02Z
2022-05-17T13:43:24Z,42.805,6.029,13.3019,4.60080,2470.413,2022-5-17T15:45:05Z
2022-05-17T13:46:27Z,42.805,6.029,13.3029,4.60082,2470.404,2022-5-17T15:48:08Z
2022-05-17T13:49:30Z,42.805,6.029,13.3036,4.60090,2470.413,2022-5-17T15:51:11Z
2022-05-17T13:52:33Z,42.805,6.029,13.3022,4.60093,2470.404,2022-5-17T15:54:14Z
2022-05-17T13:55:36Z,42.805,6.029,13.3020,4.60081,2470.404,2022-5-17T15:57:18Z
2022-05-17T13:58:40Z,42.805,6.029,13.3027,4.60086,2470.437,2022-5-17T16:00:21Z
2022-05-17T14:01:43Z,42.805,6.029,13.3021,4.60084,2470.413,2022-5-17T16:03:24Z
2022-05-17T14:04:46Z,42.805,6.029,13.3022,4.60079,2470.39,2022-5-17T16:06:27Z
2022-05-17T14:07:49Z,42.805,6.029,13.3015,4.60065,2470.39,2022-5-17T16:09:30Z
2022-05-17T14:10:52Z,42.805,6.029,13.3021,4.60069,2470.404,2022-5-17T16:12:33Z
2022-05-17T14:13:55Z,42.805,6.029,13.3020,4.60064,2470.413,2022-5-17T16:15:36Z
2022-05-17T14:16:58Z,42.805,6.029,13.3021,4.60064,2470.366,2022-5-17T16:18:39Z
2022-05-17T14:20:01Z,42.805,6.029,13.3030,4.60077,2470.404,2022-5-17T16:21:43Z
2022-05-17T14:23:05Z,42.805,6.029,13.3024,4.60073,2470.413,2022-5-17T16:24:46Z
2022-05-17T14:26:08Z,42.805,6.029,13.3022,4.60087,2470.404,2022-5-17T16:27:49Z
2022-05-17T14:29:11Z,42.805,6.029,13.3028,4.60074,2470.427,2022-5-17T16:30:52Z
2022-05-17T14:32:14Z,42.805,6.029,13.3021,4.60062,2470.413,2022-5-17T16:33:55Z
2022-05-17T14:35:17Z,42.805,6.029,13.3022,4.60084,2470.366,2022-5-17T16:36:58Z
2022-05-17T14:38:20Z,42.805,6.029,13.3028,4.60081,2470.39,2022-5-17T16:40:01Z
2022-05-17T14:41:23Z,42.805,6.029,13.3029,4.60076,2470.404,2022-5-17T16:43:04Z
2022-05-17T14:44:27Z,42.805,6.029,13.3019,4.60073,2470.366,2022-5-17T16:46:08Z
2022-05-17T14:47:30Z,42.805,6.029,13.3021,4.60075,2470.404,2022-5-17T16:49:11Z
2022-05-17T14:50:33Z,42.805,6.029,13.3022,4.60081,2470.427,2022-5-17T16:52:14Z
2022-05-17T14:53:36Z,42.805,6.029,13.3034,4.60084,2470.39,2022-5-17T16:55:17Z
2022-05-17T14:56:39Z,42.805,6.029,13.3026,4.60085,2470.39,2022-5-17T16:58:20Z
2022-05-17T14:59:42Z,42.805,6.029,13.3032,4.60081,2470.413,2022-5-17T17:01:23Z
2022-05-17T15:02:45Z,42.805,6.029,13.3030,4.60088,2470.39,2022-5-17T17:04:26Z
2022-05-17T15:05:48Z,42.805,6.029,13.3024,4.60081,2470.427,2022-5-17T17:07:29Z
2022-05-17T15:08:51Z,42.805,6.029,13.3023,4.60086,2470.38,2022-5-17T17:10:33Z
2022-05-17T15:11:55Z,42.805,6.029,13.3030,4.60081,2470.39,2022-5-17T17:13:36Z
2022-05-17T15:14:58Z,42.805,6.029,13.3031,4.60084,2470.427,2022-5-17T17:16:39Z